Vorticity
2 10 14 10 7 8 8 7 6 7 7 10 5 4 6 6 6 6 7 8 9 9 8 5 6 7 6
11 15 12 7 7 12 11 10 13 12 9 8 7 5 6 8 7 5 4 4 5 8 10 9 6 5 6
6 18 15 13 13 14 10 9 7 6 7 12 8 5 2 3 5 9 9 9 4 2 4 5 8 7 7
12 14 12 12 14 18 21 18 21 19 17 14 13 12 10 8 7 9 9 8 10 11 7 3 -1 -1 0
8 10 13 9 11 17 2 10 10 14 15 17 19 23 27 27 26 18 14 11 13 11 11 9 9 8 8
4 13 11 4 6 7 5 3 2 10 7 6 6 4 4 6 9 11 16 22 23 17 11 7 8 11 14
5 4 6 4 2 1 6 9 9 4 10 7 9 5 7 3 2 4 5 5 4 6 11 14 19 23 23
12 13 11 16 14 12 9 8 7 6 2 0 -0 -1 1 3 8 9 8 9 9 9 6 1 4 7 6
12 12 16 16 10 7 13 10 10 8 8 4 5 3 10 7 5 3 6 4 7 6 8 9 6 3 5
16 13 12 14 15 14 18 18 17 13 13 14 17 18 15 17 16 17 18 17 12 10 15 13 8 8 7
19 20 20 19 18 19 18 18 19 21 20 24 19 17 18 15 11 18 17 17 20 23 24 26 26 25 19
10 10 10 10 10 9 10 10 10 11 11 11 13 14 16 18 19 16 14 15 15 15 15 15 16 17 20
12 12 12 12 12 11 12 11 11 11 10 10 10 10 10 10 10 10 11 11 12 12 12 11 10 11 11
11 10 10 11 11 11 11 12 11 11 12 12 12 11 10 11 10 10 10 10 8 9 8 7 9 9 10
10 9 9 9 10 11 12 12 13 13 15 15 14 12 13 12 13 14 12 13 15 12 14 12 12 12 11
10 11 13 14 14 15 17 17 17 19 18 19 21 23 22 21 20 16 23 21 20 21 19 21 20 22 20
18 22 22 21 22 21 22 22 22 21 21 19 19 21 20 22 21 31 23 24 24 26 27 29 32 29 31
Height
5650 5653 5655 5657 5660 5662 5666 5669 5672 5676 5679 5682 5685 5688 5691 5694 5698 5701 5704 5708 5712 5716 5720 5724 5727 5730 5734
5630 5633 5636 5638 5641 5642 5645 5648 5652 5655 5659 5662 5666 5668 5672 5676 5678 5682 5686 5689 5693 5696 5701 5706 5709 5713 5716
5609 5612 5615 5618 5621 5622 5625 5628 5630 5633 5636 5639 5643 5647 5651 5655 5658 5661 5665 5669 5673 5677 5681 5685 5689 5694 5698
5589 5591 5593 5597 5600 5603 5605 5607 5610 5611 5613 5617 5619 5623 5628 5632 5636 5639 5643 5647 5650 5655 5659 5663 5668 5672 5677
5571 5573 5573 5576 5580 5584 5586 5587 5589 5591 5593 5595 5600 5602 5604 5607 5611 5616 5619 5622 5626 5631 5635 5639 5644 5648 5652
5554 5556 5556 5560 5560 5563 5566 5568 5572 5570 5574 5577 5579 5582 5584 5587 5590 5593 5596 5599 5602 5606 5609 5614 5619 5624 5629
5536 5537 5540 5540 5542 5543 5544 5548 5550 5550 5553 5560 5558 5562 5563 5565 5569 5573 5576 5578 5581 5584 5587 5591 5594 5598 5603
5516 5516 5518 5519 5519 5520 5522 5525 5528 5530 5531 5537 5535 5539 5541 5544 5546 5549 5552 5554 5556 5561 5565 5568 5571 5575 5579
5493 5495 5496 5496 5496 5497 5499 5501 5505 5507 5507 5511 5512 5516 5517 5520 5521 5522 5525 5527 5531 5534 5538 5542 5545 5548 5554
5471 5473 5473 5473 5473 5473 5475 5478 5479 5483 5481 5484 5485 5488 5493 5495 5494 5494 5496 5499 5502 5505 5508 5511 5515 5519 5527
5451 5451 5451 5452 5452 5452 5453 5454 5456 5459 5458 5458 5461 5462 5464 5470 5472 5470 5470 5472 5474 5477 5480 5483 5485 5488 5495
5433 5433 5431 5432 5432 5432 5431 5433 5435 5437 5437 5436 5440 5438 5441 5445 5448 5449 5450 5451 5451 5453 5453 5456 5459 5461 5466
5414 5413 5412 5413 5413 5411 5411 5413 5415 5415 5415 5415 5416 5416 5419 5423 5425 5426 5428 5428 5427 5427 5429 5431 5434 5436 5442
5394 5393 5393 5393 5393 5391 5393 5391 5395 5394 5393 5393 5393 5394 5397 5399 5400 5402 5401 5403 5404 5403 5404 5408 5410 5412 5415
5374 5373 5373 5372 5372 5371 5372 5371 5373 5372 5370 5367 5367 5369 5372 5374 5375 5374 5376 5379 5377 5376 5376 5382 5385 5386 5388
5353 5352 5352 5351 5350 5350 5349 5349 5350 5349 5350 5348 5346 5345 5347 5351 5350 5352 5353 5352 5351 5351 5351 5353 5359 5358 5360
5330 5330 5330 5330 5330 5331 5330 5329 5330 5331 5331 5330 5328 5326 5328 5333 5332 5327 5331 5330 5329 5330 5328 5329 5333 5335 5333